Lid_Strength_Index
12 12 12 12 11 12 14 13 15 14 14 12 10 9 8 7 6 6 6 6 6 5 4 3 3 3 2 2 1 1 1 1 2 1 1 1 1 2 1 1 1 2 2 2
12 11 12 13 11 11 12 12 13 13 13 9 8 8 8 7 7 8 7 7 7 6 6 5 4 4 4 4 3 1 2 2 1 1 1 1 1 2 1 1 1 1 1 1
15 12 13 14 13 12 12 11 12 14 12 9 9 8 8 8 7 8 8 7 7 7 7 7 6 5 6 5 4 4 4 4 3 1 1 1 1 1 1 1 1 1 1 1
15 13 17 13 11 10 12 11 10 10 10 8 8 8 8 8 9 9 8 9 9 8 8 7 6 7 6 6 7 6 5 5 4 4 3 2 2 2 1 1 1 1 1 1
16 16 13 11 11 12 12 13 9 10 8 9 8 8 9 8 8 9 8 8 8 8 8 7 8 8 8 8 8 7 8 7 6 5 4 4 4 4 4 3 2 2 2 2
14 16 17 12 8 7 8 15 8 8 9 9 8 12 11 8 8 9 7 6 7 7 7 7 7 7 6 7 7 9 8 8 7 6 6 5 6 5 4 4 3 2 2 1
15 16 14 9 8 7 13 13 8 8 8 9 10 10 10 9 8 7 7 7 7 7 8 8 8 7 8 8 8 7 6 5 6 6 6 6 6 6 7 5 6 4 4 3
15 16 17 7 8 11 10 9 7 8 8 9 9 8 9 8 7 8 8 8 8 9 9 8 8 8 9 9 8 8 7 7 6 6 5 5 5 6 6 7 7 7 6 6
13 13 9 8 9 9 8 9 8 8 8 8 9 9 9 9 8 8 8 9 8 9 10 9 9 9 10 9 8 8 8 8 8 7 6 6 6 5 6 6 6 6 5 6
11 10 9 8 8 8 8 8 8 7 8 8 9 8 9 9 9 8 9 9 10 11 11 11 10 9 10 10 9 9 10 9 9 9 8 7 7 6 6 7 7 6 6 6
11 9 8 8 8 8 8 7 7 6 7 7 8 8 8 9 8 8 9 9 9 10 10 11 10 10 10 10 10 10 10 10 10 9 10 9 9 8 7 8 8 8 7 7
12 10 10 9 8 6 7 8 7 7 8 7 7 8 8 8 8 8 9 9 10 10 10 10 9 9 9 9 9 10 10 10 10 10 10 10 10 10 8 8 9 9 10 9
8 7 7 6 6 6 7 6 6 7 7 7 8 7 7 8 8 7 8 8 9 9 9 9 10 9 9 9 10 10 11 11 11 10 10 10 10 10 11 10 9 9 10 10
6 6 8 6 7 6 6 6 5 5 6 6 7 6 6 7 6 7 8 8 8 8 8 8 8 9 8 8 9 10 11 8 11 11 11 11 11 11 10 10 10 10 9 9
6 6 6 6 6 5 6 6 7 6 6 6 5 5 6 6 7 7 7 7 7 8 8 8 8 8 8 8 9 10 10 10 10 11 11 10 11 10 10 10 10 10 10 10
6 6 6 6 6 6 5 6 7 7 6 6 6 5 5 5 6 6 6 7 8 8 8 8 8 8 8 9 10 10 10 7 9 11 11 11 11 11 11 11 11 11 11 11
9 8 8 8 6 6 5 4 5 5 5 6 6 5 5 6 7 6 7 6 7 7 7 7 7 7 8 9 9 10 11 11 8 11 11 11 11 12 11 11 12 11 11 10
5 5 6 6 6 6 5 4 4 4 4 3 3 5 5 7 6 7 7 7 8 7 7 7 7 7 7 8 9 10 10 11 11 11 11 11 11 11 12 12 11 11 11 10
4 5 5 5 5 5 5 5 4 3 3 3 3 4 5 5 6 6 6 6 7 8 7 8 4 6 9 8 8 10 10 11 11 11 11 10 12 12 12 12 12 12 12 11
4 5 4 4 4 5 5 4 3 3 3 3 3 3 4 4 5 6 6 6 6 5 6 6 4 8 9 7 6 11 11 11 11 12 12 12 13 13 13 12 12 12 12 12
4 4 4 4 4 4 4 4 4 5 4 3 3 3 3 3 3 5 6 6 5 4 5 4 5 7 8 7 7 11 11 11 12 12 12 13 13 13 13 13 11 11 11 11
7 6 6 6 6 6 6 5 4 4 3 3 3 3 3 4 4 4 4 4 4 3 4 4 5 6 7 3 10 10 10 10 11 11 12 12 13 13 13 11 10 10 10 10
7 7 6 6 6 6 6 5 5 5 5 4 5 5 5 4 3 3 4 2 3 3 4 4 4 3 3 5 8 9 9 9 10 10 11 11 12 12 12 10 9 9 9 9
7 7 7 7 7 7 7 6 6 5 5 4 4 4 5 5 4 2 2 2 2 3 3 4 4 3 3 6 8 9 9 9 10 10 11 9 11 11 11 10 9 8 8 9
7 7 7 7 7 8 7 7 6 5 5 5 4 4 4 4 4 3 2 2 2 2 3 2 3 3 3 6 7 8 8 8 9 9 10 10 11 11 11 10 8 8 7 8
8 8 7 7 7 7 7 7 7 5 4 4 2 2 2 2 2 1 2 1 1 2 2 3 3 3 3 6 7 7 8 8 8 8 9 9 10 11 11 9 7 7 7 9
7 7 8 7 7 6 6 6 6 5 5 4 4 3 2 2 1 1 2 1 1 1 2 1 2 3 3 5 6 7 7 7 7 8 8 8 9 9 10 9 7 8 8 10